HAIYANG 1D

导读 | 星芒AI

HAIYANG 1D 是中国自主研发的海洋水色观测卫星,于2010年发射,主要用于监测海洋环境,包括海面温度、叶绿素浓度和悬浮物分布等。该卫星搭载多光谱传感器,具备高分辨率和高精度的遥感能力,为海洋资源管理、渔业生产及生态环境保护提供重要数据支持。

基本信息
目录编号:
45721
目录名称:
HAIYANG 1D
国际标识:
2020-036A
轨道中心:
EARTH
卫星名称:
HAIYANG 1D
卫星全名:
--
卫星状态:
在轨 (已飞行1967 天)
发射日期:
2020-06-10 UTC
国别 :
中国 (CN)
星等 :
--
轨道信息
数据来源 国际轨道数据
星历时间: 2025-10-28T23:07:21+0800
18小时前
查看轨道信息
半长轴: 7155.83km
偏心率: 0.0003955
轨道倾角: 98.429°
近地点辐角 110.022°
升交点赤经 243.664°
平近点角 250.139°
近地点: 774.864km
远地点: 780.526km
周期: 100.404分钟
每日圈数: 14.342101
详细信息
使用方式:
暂无
2D轨道图
3D轨道图
轨道高度分析图
轨道倾角分析图
轨道综合分析图
查看轨道综合分析图